CW4198 Weather Reports


time (UTC)temp
C
wind
direction
speed
KPH
gust
KPH
rain 1hr
cm
rain 24hr
cm
rain mn
cm
humidity
%
barometer
mb
20180419170428 24 124 4.8 12.9 0.00 0.00 0.00 25 1014.8
20180419164428 24 93 11.3 11.3 0.00 0.00 0.00 25 1014.8
20180419162515 25 106 8.0 8.0 0.00 0.00 0.00 25 1014.8
20180419161515 25 102 11.3 16.1 0.00 0.00 0.00 24 1014.8
20180419160515 25 128 14.5 14.5 0.00 0.00 0.00 25 1014.8
20180419155515 25 84 8.0 12.9 0.00 0.00 0.00 24 1014.8
20180419154515 25 118 12.9 17.7 0.00 0.00 0.00 24 1014.8
20180419153515 25 135 8.0 11.3 0.00 0.00 0.00 24 1014.8
20180419152515 25 118 11.3 12.9 0.00 0.00 0.00 24 1014.8
20180419151514 25 92 8.0 14.5 0.00 0.00 0.00 24 1014.8
20180419150514 25 112 8.0 11.3 0.00 0.00 0.00 26 1014.8
20180419145514 24 71 14.5 14.5 0.00 0.00 0.00 25 1015.8
20180419144514 24 101 8.0 16.1 0.00 0.00 0.00 26 1015.8
20180419143514 24 64 11.3 14.5 0.00 0.00 0.00 25 1015.8
20180419142514 24 129 8.0 14.5 0.00 0.00 0.00 25 1015.8
20180419141514 24 102 11.3 14.5 0.00 0.00 0.00 25 1015.8
20180419135514 24 52 6.4 8.0 0.00 0.00 0.00 25 1015.8
20180419132513 24 151 11.3 16.1 0.00 0.00 0.00 23 1016.8
20180419131513 24 92 16.1 17.7 0.00 0.00 0.00 23 1016.8
20180419124513 23 67 8.0 16.1 0.00 0.00 0.00 24 1016.8
20180419123513 23 84 6.4 20.9 0.00 0.00 0.00 24 1016.8
20180419122513 23 111 8.0 17.7 0.00 0.00 0.00 24 1016.8
20180419121513 23 92 16.1 16.1 0.00 0.00 0.00 25 1016.8
20180419115513 23 90 11.3 16.1 0.00 0.00 0.00 25 1016.8
20180419112512 22 55 11.3 12.9 0.00 0.00 0.00 29 1017.8
20180419111512 22 120 11.3 11.3 0.00 0.00 0.00 31 1017.8
20180419110512 21 87 11.3 14.5 0.00 0.00 0.00 32 1017.8
20180419104512 21 83 11.3 12.9 0.00 0.00 0.00 32 1017.8
20180419102522 20 103 11.3 14.5 0.00 0.00 0.00 34 1017.8
20180419101522 20 85 3.2 11.3 0.00 0.00 0.00 39 1017.8
20180419100522 20 69 8.0 14.5 0.00 0.00 0.00 37 1017.8
20180419094522 19 67 8.0 14.5 0.00 0.00 0.00 39 1017.8
20180419093522 19 95 8.0 14.5 0.00 0.00 0.00 36 1017.8
20180419081521 15 55 8.0 11.3 0.00 0.00 0.00 62 1017.8
20180419075521 14 44 8.0 12.9 0.00 0.00 0.00 72 1017.8
20180419073520 13 89 9.7 9.7 0.00 0.00 0.00 76 1017.8
20180419072520 13 73 4.8 12.9 0.00 0.00 0.00 78 1017.8
20180419071520 12 72 11.3 11.3 0.00 0.00 0.00 79 1017.8
20180419070520 12 85 8.0 9.7 0.00 0.00 0.00 81 1017.8
20180419065520 12 63 4.8 9.7 0.00 0.00 0.00 82 1017.8
20180419063520 11 85 3.2 8.0 0.00 0.00 0.00 82 1017.8
20180419054520 11 79 4.8 8.0 0.00 0.00 0.00 78 1016.8
20180419050435 12 75 4.8 8.0 0.00 0.00 0.00 71 1016.8
20180419044435 12 74 6.4 8.0 0.00 0.00 0.00 69 1016.8
20180419043434 12 82 3.2 8.0 0.00 0.00 0.00 70 1016.8
20180419042434 12 72 6.4 8.0 0.00 0.00 0.00 70 1016.8
20180419034509 12 24 0.0 0.0 0.00 0.00 0.00 66 1016.8
20180419025508 13 327 0.0 0.0 0.00 0.00 0.00 64 1016.8
20180419024508 13 327 0.0 0.0 0.00 0.00 0.00 64 1016.8
20180419021508 13 323 0.0 0.0 0.00 0.00 0.00 65 1017.8
20180419020508 13 322 0.0 0.0 0.00 0.00 0.00 65 1017.8
20180419012507 13 293 0.0 0.0 0.00 0.00 0.00 62 1017.8
20180419004507 14 293 0.0 0.0 0.00 0.00 0.00 57 1017.8
20180419003507 14 293 0.0 0.0 0.00 0.00 0.00 56 1018.8
20180419002507 14 293 0.0 0.0 0.00 0.00 0.00 55 1018.8
20180419001507 15 293 0.0 0.0 0.00 0.00 0.00 54 1018.8
20180419000507 15 293 0.0 0.0 0.00 0.00 0.00 52 1018.8
20180418234507 15 293 0.0 0.0 0.00 0.00 0.00 50 1018.8
20180418232506 15 293 0.0 0.0 0.00 0.00 0.00 48 1018.8
20180418231506 16 293 0.0 0.0 0.00 0.00 0.00 46 1018.8
20180418230506 16 293 0.0 0.0 0.00 0.00 0.00 45 1018.8
20180418225506 16 293 0.0 0.0 0.00 0.00 0.00 45 1018.8
20180418223522 17 199 0.0 0.0 0.00 0.00 0.00 44 1018.8
20180418222521 17 197 0.0 0.0 0.00 0.00 0.00 44 1018.8
20180418220521 17 197 0.0 0.0 0.00 0.00 0.00 46 1018.8
20180418215521 16 197 0.0 0.0 0.00 0.00 0.00 47 1018.8
20180418212521 17 197 0.0 0.0 0.00 0.00 0.00 46 1018.8
20180418205521 18 197 0.0 0.0 0.00 0.00 0.00 43 1018.8
20180418202520 19 197 0.0 0.0 0.00 0.00 0.00 39 1018.8
20180418190520 22 197 0.0 0.0 0.00 0.00 0.00 32 1017.8
20180418185520 22 198 0.0 0.0 0.00 0.00 0.00 31 1017.8
20180418184520 22 200 0.0 0.0 0.00 0.00 0.00 30 1017.8
20180418182520 23 174 6.4 8.0 0.00 0.00 0.00 27 1017.8
20180418181519 23 203 8.0 11.3 0.00 0.00 0.00 26 1017.8
20180418173519 24 211 11.3 12.9 0.00 0.00 0.00 22 1017.8
20180418172519 24 192 8.0 11.3 0.00 0.00 0.00 22 1017.8
20180418171519 25 237 8.0 12.9 0.00 0.00 0.00 21 1017.8